ROMMA est une association bénévole à but non lucratif. Votre soutien est indispensable : ADHERER à ROMMA ou FAIRE un DON

Chambon - (38, Isère)

Oisans (2460 m)   Longitude: 06° 10' 42" E   Latitude: 45° 01' 32" N Station partenaire n°803
 

Détail journalier du     <<     >>

Température Humidité Vent Dir Rafale Dir. rafale Neige 1 Neige 2
Heure (°C) (%) (km/h) (km/h) (cm) (cm)
01:00 9.4389SSO14SSO00
02:00 9.4397SSO9SSO00
03:00 9.2334SSO8SSO10
04:00 9.1425SSO7OSO00
05:00 9.0417SSO10OSO00
06:00 8.64312SSO17SSO00
07:00 8.54114SSO21SSO00
08:00 8.74012SSO18SSO00
09:00 12.4335ENE12SO00
10:00 12.6351NNE9NNE00
11:00 13.0313NNE11ENE01
12:00 14.4312N10N00
13:00 14.9282NNE12NNE00
14:00 15.1244NNE17OSO01
15:00 14.92310OSO23O11
16:00 14.93315O28O01
17:00 14.74018OSO30O10
18:00 14.14720O35O10
19:00 13.55117O33O10
20:00 12.55414OSO23OSO00
21:00 10.8609OSO18OSO00
22:00 10.5585SO8OSO01
23:00 10.4594SO7SO11
minuit 9.7601OSO3OSO11

Graphique du 25-08-2019

 

Serveur OMMA